Regional Weather Roundup
Issued by NWS

Home | Current Version | Previous Version | Graphics & Text | Print | Product List | Glossary On
Versions: 1 2 3 4 5 6 7 8 9 10 11 12 13 14 15 16 17 18 19 20 21 22 23 24 25 26 27 28 29 30 31 32 33 34 35 36 37 38 39 40 41 42 43 44 45 46 47 48 49 50
000
ASUS43 KDMX 221201
RWRIA

WEATHER ROUNDUP FOR IOWA
NATIONAL WEATHER SERVICE DES MOINES IA
700 AM CDT SUN OCT 22 2017

NOTE: "FAIR" INDICATES FEW OR NO CLOUDS BELOW 12,000 FEET WITH NO
SIGNIFICANT WEATHER AND/OR OBSTRUCTIONS TO VISIBILITY.

* - THESE STATIONS ARE NOT NWS STATIONS...THUS NOT UNDER NWS
QUALITY CONTROL.  THEY ALSO DO NOT REPORT WEATHER SUCH
AS PRECIPITATION OR FOG.

IAZ001>003-012>014-020>022-031>034-043>046-221300-
   NORTHWEST IOWA

CITY           SKY/WX    TMP DP  RH WIND       PRES   REMARKS
CHEROKEE *     CLOUDY    37  37 100 CALM      30.05R
DENISON *      CLOUDY    43  41  93 CALM      30.08R
LE MARS *      CLEAR     36  34  93 S5        30.05R WCI  32
ORANGE CITY *  CLEAR     37  36  93 CALM      30.04R
SHELDON *      CLEAR     32  32 100 CALM      30.03R
SIOUX CITY     CLEAR     35  34  96 SW3       30.07R
6HR MIN TEMP:  34; 6HR MAX TEMP:  43;

SPENCER        CLOUDY    39  36  89 W3        30.03R
6HR MIN TEMP:  38; 6HR MAX TEMP:  43;

STORM LAKE *   PTCLDY    43  39  87 W8        30.04R
$$

IAZ055>058-069>071-079>083-090>094-221300-
   SOUTHWEST IOWA

CITY           SKY/WX    TMP DP  RH WIND       PRES   REMARKS
ATLANTIC *     MOCLDY    46  43  87 CALM      30.06R
AUDUBON *      CLOUDY    46  41  81 NW3       30.06R
CLARINDA *       N/A     46  43  87 CALM      30.09S
COUNCIL BLFS * CLOUDY    45  41  87 W6        30.08R
CRESTON *      MOCLDY    46  45  93 W7        30.05R
HARLAN  *      PTCLDY    41  41 100 CALM      30.10R
LAMONI         CLOUDY    50  47  89 NW6       30.02R
6HR MIN TEMP:  49; 6HR MAX TEMP:  51; 6HR PCP:  0.11;

RED OAK *      CLOUDY    43  41  93 CALM      30.08R
SHENANDOAH *   MOCLDY    45  41  87 SW6       30.09R
$$

IAZ047>049-059>061-072>074-084-221300-
   CENTRAL IOWA

CITY           SKY/WX    TMP DP  RH WIND       PRES   REMARKS
AMES           CLOUDY    49  47  93 NW5       30.00R
6HR MIN TEMP:  49; 6HR MAX TEMP:  52;

ANKENY *       CLOUDY    50  45  81 NW8G15    30.01S
BOONE *        CLOUDY    48  43  81 NW6G12    30.00S
CHARITON *     CLOUDY    50  46  87 NW7       29.99F
DES MOINES     CLOUDY    50  46  86 NW10      30.01R
6HR MIN TEMP:  50; 6HR MAX TEMP:  52; 6HR PCP: TRACE;

GRINNELL*      DRIZZLE   49  47  93 W7        30.00R
KNOXVILLE *    CLOUDY    50  48  93 W6        29.98S
MARSHALLTOWN   CLOUDY    50  47  89 NW8       29.98R
6HR MIN TEMP:  50; 6HR MAX TEMP:  52; 6HR PCP:  0.03;

NEWTON *       CLOUDY    50  48  93 NW5       29.99S
PELLA *        DRIZZLE   49  48  93 NW7       30.00R
PERRY *          N/A     49  45  87 W7        30.04R
$$

IAZ004>006-015-016-023>025-035-036-221300-
   NORTH CENTRAL IOWA

CITY           SKY/WX    TMP DP  RH WIND       PRES   REMARKS
ALGONA *       CLOUDY    45  43  93 W7        30.02R
CLARION *      CLOUDY    46  46 100 W7        30.01R
ESTHERVILLE    CLOUDY    40  39  97 SW8       30.01R WCI  34
6HR MIN TEMP:  40; 6HR MAX TEMP:  46;

FORT DODGE *   CLOUDY    47  42  83 W3        30.02R
MASON CITY     CLOUDY    47  42  83 W6        30.00R
6HR MIN TEMP:  47; 6HR MAX TEMP:  50;

FOREST CITY *    N/A     46  43  87 W3        30.00R
WEBSTER CITY * CLOUDY    48  43  81 NW7       29.99S
IOWA FALLS *   MOCLDY    49  46  88 W5        30.01R
$$

IAZ007>011-017>019-026>030-037>042-050>054-066-221300-
   NORTHEAST IOWA

CITY           SKY/WX    TMP DP  RH WIND       PRES   REMARKS
CEDAR RAPIDS   CLOUDY    50  49  96 N12       29.95S
6HR MIN TEMP:  50; 6HR MAX TEMP:  58; 6HR PCP:  0.21;

CHARLES CITY * CLOUDY    48  48 100 W5        29.98S
CLINTON *      LGT RAIN  55  54  96 NW9       29.91S
DECORAH *      CLOUDY    48  48 100 NW3       29.94F
DUBUQUE        CLOUDY    52  49  89 N13       29.93R
6HR MIN TEMP:  52; 6HR MAX TEMP:  64; 6HR PCP:  0.07;

MONTICELLO *   CLOUDY    52  48  87 NW9       29.94R
OELWEIN *      CLOUDY    50  50 100 NW7       29.96F
WATERLOO       CLOUDY    49  47  93 W3        29.96S
6HR MIN TEMP:  49; 6HR MAX TEMP:  53; 6HR PCP:  0.09;

$$

IAZ064-065-067-068-078-221300-
   EAST CENTRAL IOWA

CITY           SKY/WX    TMP DP  RH WIND       PRES   REMARKS
DAVENPORT      LGT RAIN  54  53  97 NW10      29.94S
6HR MIN TEMP:  54; 6HR MAX TEMP:  69; 6HR PCP:  0.30;

IOWA CITY      CLOUDY    53  49  86 NW9       29.96S
6HR MIN TEMP:  53; 6HR MAX TEMP:  62; 6HR PCP:  0.32;

MUSCATINE *    LGT RAIN  54  50  87 N8G15     29.95S
QUAD CITIES    CLOUDY    56  52  86 NW10      29.91R
6HR MIN TEMP:  56; 6HR MAX TEMP:  72; 6HR PCP:  0.23;

$$

IAZ062-063-075>077-085>089-095>099-221300-
   SOUTHEAST IOWA

CITY           SKY/WX    TMP DP  RH WIND       PRES   REMARKS
BURLINGTON     RAIN      53  53 100 N12       29.93S
6HR MIN TEMP:  53; 6HR MAX TEMP:  70; 6HR PCP:  0.42;

FAIRFIELD *    CLOUDY    50  48  93 N10       29.95S
FORT MADISON * LGT RAIN  54  52  94 NW14      29.95R
KEOKUK *       LGT RAIN  54  52  94 N15       29.92S
OSKALOOSA *    RAIN      49  48  97 NW7       29.98R
OTTUMWA        LGT RAIN  50  50 100 N10       29.97F
6HR MIN TEMP:  50; 6HR MAX TEMP:  55; 6HR PCP:  0.34;

WASHINGTON *   CLOUDY    52  50  93 N12       29.95F
$$

ABBREVIATIONS USED IN REMARKS
   TC - TEMPERATURES IN CELSIUS
  WCI - WIND CHILL INDEX
   HX - HEAT INDEX
  VSB - VISIBILITY
$$





USA.gov is the U.S. government's official web portal to all federal, state and local government web resources and services.